Location: Braden Valley Church
(38.0012°N, 88.6106°W)
Time: 07:27:04
(UTC+00:00)

Aureole 3 Rocket - Pass Details

Date: 08 December 2021
Orbit: 399 x 1737 km, 82.5° (Epoch: 16 January)

Event Time Altitude Azimuth Distance (km) Brightness Sun altitude
Rises 23:29:38 0° 152° (SSE) 2,720 6.3 -10.7°
Reaches altitude 10° 23:31:49 10° 138° (SE) 1,977 5.4 -11.1°
Maximum altitude 23:35:25 26° 82° (E) 1,449 4.4 -11.7°
Drops below altitude 10° 23:40:04 10° 29° (NNE) 2,613 5.8 -12.6°
Sets 23:43:23 0° 18° (NNE) 3,821 6.8 -13.2°
